Rbgn^[z[y[W
メイン
   新天体発見情報
     Comet P/2012 NJ (La Sagra)
投稿するにはまず登録を

フラット表示 前のトピック | 次のトピック
投稿者 スレッド
佐藤裕久
投稿日時: 2012-7-19 23:18
モデレータ
登録日: 2005-6-12
居住地: 日本
投稿: 2676
オンライン
Comet P/2012 NJ (La Sagra)

7月13.03日UT、La Sagra サーベイのコースにS. Sanchez, J. Nomen, M. Hurtado, 
J. A. Jaume, W. K. Y. Yeung, P. Rios, F. Serra,と V. Riosが、0.45-m f/2.8 
反射望遠鏡のCCD画像から14.6等の外見上は小惑星状天体を発見した。
Gerhard J. Hahn (惑星研究所、ドイツ航空宇宙センター、Berlin)の報告では、7月16日,
17日と18日UTに、Stefano MottolaがCalar Altoの1.23-m反射望遠鏡で得たスタック画像
とシングル画像にp.a. 235°に35"の尾が見えた。 

発見位置は次のとおり、

     2012 UT             R.A. (2000) Decl.       Mag.   Observer
     July 13.03197   23 48 07.21   +10 10 11.4   14.6   Sanchez
          13.03844   23 48 05.10   +10 10 48.8   14.6     "
          13.04500   23 48 02.95   +10 11 26.3   14.5     "

楕円軌道要素、位置推算表は次のとおり、

Orbital elements:
    P/2012 NJ (La Sagra)
Epoch 2012 June 2.0 TT = JDT 2456080.5
T 2012 June 12.73335 TT                                 MPC
q   1.2896564            (2000.0)            P               Q
n   0.04419335     Peri.  338.11275     +0.63786978     +0.33195454
a   7.9231545      Node   315.69552     -0.47172520     -0.54485570
e   0.8372294      Incl.   84.22835     -0.60876718     +0.77002497
P  22.3
From 242 observations 2012 July 13-18, mean residual 0".4.

Ephemeris:
    P/2012 NJ (La Sagra)
Date    TT    R. A. (2000) Decl.     Delta      r     Elong.  Phase   m1
2012 06 18    01 04 55.2 -17 23 27   0.9933  1.2917    80.0    50.8  15.6
...
2012 07 03    00 30 30.0 -03 47 30   0.7455  1.3197    95.8    50.0  15.1
...
2012 07 11    23 58 29.5 +06 59 48   0.6429  1.3473   106.4    46.4  14.8
...
2012 07 17    23 24 42.0 +16 43 37   0.5945  1.3732   114.4    42.4  14.7
2012 07 18    23 18 06.3 +18 25 16   0.5895  1.3780   115.6    41.7  14.7
2012 07 19    23 11 13.2 +20 07 02   0.5856  1.3828   116.8    41.0  14.7
...
2012 07 25    22 24 07.6 +29 49 48   0.5834  1.4141   122.0    37.5  14.8
...
2012 08 02    21 11 11.8 +39 16 45   0.6374  1.4614   122.7    35.7  15.2
...
2012 08 17    19 15 47.6 +44 08 33   0.8605  1.5642   113.0    36.6  16.1

Computer: Williams

(CBET 3178、MPEC 2012-O08)
フラット表示 前のトピック | 次のトピック

題名 投稿者 日時
 » Comet P/2012 NJ (La Sagra) 佐藤裕久 2012-7-19 23:18

投稿するにはまず登録を
 
© 1999 Tsutomu Seki.